Location: Limerick
(52.6800°N, 8.6400°W)
Time: 13:50:40
(UTC+01:00)

Amateur Radio Satellites - All Passes

Search period start: 19 October 2017 13:20
Search period end: 20 October 2017 13:20
Location: Limerick, 52.6800°N, 8.6400°W

Satellite Date Start Highest point End Downlink Frequencies (MHz)
Time Altitude Azimuth
nSIGHT-1 19 Oct 13:21:40 13:24:47 51° 162° (SSE) 13:27:55 .
EO-79 19 Oct 13:26:16 13:29:57 28° 266° (W) 13:33:39 145.935-145.965
Oscar 19 19 Oct 13:27:03 13:32:01 50° 67° (ENE) 13:37:00 437.125/150
LO-87 19 Oct 13:29:27 13:32:59 49° 290° (WNW) 13:36:31 145.935 - 145.965
POLYITAN 1 19 Oct 13:30:43 13:34:18 26° 267° (W) 13:37:56 437.675
SPROUT 19 Oct 13:38:19 13:42:20 36° 97° (E) 13:46:17 437.525
BEESAT 2 19 Oct 13:41:22 13:43:38 15° 113° (ESE) 13:45:55 435.950
Gurwin Techsat 1B 19 Oct 13:46:59 13:52:08 53° 67° (ENE) 13:57:18 435.225
M-CUBED/EXP-1 PRIME 19 Oct 13:50:09 13:53:31 77° 249° (WSW) 13:56:48 437.505
ISS 19 Oct 13:50:46 13:53:59 61° 168° (SSE) 13:57:14 437.550
QB50P2 19 Oct 13:52:07 13:54:47 16° 272° (W) 13:57:26 145.880/145.840
SO-50 19 Oct 13:55:58 13:59:37 23° 18° (NNE) 14:03:19 436.795
NANOSAT C BR1 19 Oct 13:56:36 13:59:25 17° 271° (W) 14:02:16 145.865
BEESAT 3 19 Oct 13:59:29 14:03:24 53° 127° (SE) 14:07:21 437.485
ITAMSAT 1 19 Oct 14:00:24 14:02:27 12° 45° (NE) 14:04:30 435.822/435.867
DUCHIFAT 1 19 Oct 14:08:35 14:11:04 15° 272° (W) 14:13:32 145.980
RS-15 19 Oct 14:11:49 14:12:47 10° 274° (W) 14:13:44 29.354- 29.394
VELOX 1 19 Oct 14:12:07 14:16:28 52° 100° (E) 14:20:49 145.980
AO-85 19 Oct 14:14:37 14:17:28 20° 116° (ESE) 14:20:23 145.980
UKube-1 19 Oct 14:15:43 14:17:16 12° 86° (E) 14:18:48 .
ESTCUBE 1 19 Oct 14:16:47 14:20:51 35° 296° (WNW) 14:24:55 437.505/2401.250
BUGSAT 1 19 Oct 14:20:01 14:23:48 32° 264° (W) 14:27:39 437.445
AO-7 19 Oct 14:32:14 14:39:54 44° 53° (NE) 14:47:35 .
50 SAT 19 Oct 14:32:30 14:35:18 24° 95° (E) 14:38:04 437.505
YUBILEINY 19 Oct 14:33:35 14:37:04 13° 327° (NNW) 14:40:33 435.215
PCSat 19 Oct 14:51:33 14:55:19 18° 8° (N) 14:59:03 145.827
nSIGHT-1 19 Oct 14:57:45 15:00:57 74° 185° (S) 15:04:09 .
Oscar 19 19 Oct 15:07:04 15:11:35 30° 266° (W) 15:16:07 437.125/150
SPROUT 19 Oct 15:14:20 15:18:10 32° 296° (WNW) 15:21:59 437.525
BEESAT 2 19 Oct 15:16:44 15:20:46 89° 133° (SE) 15:24:53 435.950
DX 1 19 Oct 15:22:45 15:27:08 69° 104° (ESE) 15:31:30 434.975-435.025
ISS 19 Oct 15:27:07 15:30:23 70° 187° (S) 15:33:39 437.550
Gurwin Techsat 1B 19 Oct 15:27:45 15:32:22 29° 267° (W) 15:37:00 435.225
ITAMSAT 1 19 Oct 15:35:48 15:40:49 52° 66° (ENE) 15:45:54 435.822/435.867
SO-50 19 Oct 15:36:22 15:40:55 61° 41° (NE) 15:45:31 436.795
BEESAT 3 19 Oct 15:37:29 15:41:09 32° 327° (NNW) 15:44:50 437.485
VELOX 1 19 Oct 15:49:04 15:52:39 25° 300° (WNW) 15:56:15 145.980
UKube-1 19 Oct 15:49:38 15:54:00 82° 107° (ESE) 15:58:20 .
AO-85 19 Oct 15:53:30 15:57:25 66° 317° (NW) 16:01:31 145.980
50 SAT 19 Oct 16:04:45 16:07:38 28° 294° (WNW) 16:10:30 437.505
MOZHAYETS 4 19 Oct 16:08:27 16:12:18 25° 92° (E) 16:16:05
AO-7 19 Oct 16:24:16 16:32:29 62° 256° (WSW) 16:40:43 .
ITUPSAT 1 19 Oct 16:25:09 16:29:25 31° 95° (E) 16:33:40 437.325
nSIGHT-1 19 Oct 16:34:02 16:37:03 39° 203° (SSW) 16:40:04 .
PCSat 19 Oct 16:35:23 16:40:19 34° 33° (NNE) 16:45:14 145.827
BEESAT 19 Oct 16:41:24 16:45:59 42° 98° (E) 16:50:31 436.000
DOVE 4 19 Oct 16:55:09 16:58:57 32° 64° (ENE) 17:02:54 437.250
BEESAT 2 19 Oct 16:55:39 16:59:01 24° 334° (NNW) 17:02:24 435.950
DX 1 19 Oct 16:59:46 17:02:53 19° 303° (WNW) 17:06:00 434.975-435.025
ISS 19 Oct 17:03:40 17:06:36 30° 207° (SSW) 17:09:32 437.550
ITAMSAT 1 19 Oct 17:16:04 17:20:33 29° 266° (W) 17:25:06 435.822/435.867
SO-50 19 Oct 17:17:13 17:21:08 28° 241° (WSW) 17:25:05 436.795
BEESAT 3 19 Oct 17:17:19 17:19:49 16° 350° (N) 17:22:19 437.485
XW-2F 19 Oct 17:21:05 17:23:15 15° 58° (ENE) 17:25:25 145.980 - 146.000
KAITUO 1B 19 Oct 17:22:08 17:23:44 12° 57° (ENE) 17:25:19 145.475/437.950
LilacSat-2 19 Oct 17:23:07 17:25:41 17° 60° (ENE) 17:28:14 437.200
UKube-1 19 Oct 17:26:44 17:29:29 17° 305° (NW) 17:32:13 .
XW-2D 19 Oct 17:31:42 17:34:29 20° 62° (ENE) 17:37:17 145.860 - 145.880
AO-85 19 Oct 17:35:26 17:38:33 21° 341° (NNW) 17:41:48 145.980
CUTE-I 19 Oct 17:36:26 17:40:55 29° 58° (ENE) 17:45:26 437.470
NUDT-PHONESAT 19 Oct 17:37:31 17:39:54 16° 60° (ENE) 17:42:16 437.300
HO-68 19 Oct 17:39:16 17:44:48 25° 47° (NE) 17:50:22 435.675
XW-2B 19 Oct 17:44:43 17:47:50 25° 64° (ENE) 17:50:57 145.730 - 145.750
KKS-1 19 Oct 17:45:11 17:48:12 17° 89° (E) 17:51:11 437.445
MOZHAYETS 4 19 Oct 17:45:15 17:49:42 48° 292° (WNW) 17:54:05
CUBESAT XI-V 19 Oct 17:52:53 17:57:26 58° 101° (E) 18:01:59 437.345
ITUPSAT 1 19 Oct 18:02:50 18:07:24 44° 294° (WNW) 18:11:55 437.325
XW-2C 19 Oct 18:07:19 18:10:54 40° 69° (ENE) 18:14:28 145.795 - 145.815
nSIGHT-1 19 Oct 18:11:45 18:12:41 11° 221° (SW) 18:13:37 .
PCSat 19 Oct 18:18:45 18:24:11 71° 235° (SW) 18:29:34 145.827
BEESAT 19 Oct 18:19:24 18:23:40 32° 298° (WNW) 18:27:53 436.000
STARS 19 Oct 18:21:28 18:24:25 17° 89° (E) 18:27:20 437.465
AO-7 19 Oct 18:22:32 18:27:03 15° 278° (W) 18:31:37 .
UWE-3 19 Oct 18:25:24 18:26:21 11° 49° (NE) 18:27:17 435.000/436.395/437.385
CUTE 1.7 + AOD 2 19 Oct 18:30:09 18:33:21 21° 61° (ENE) 18:36:35 437.475
DOVE 4 19 Oct 18:32:48 18:36:38 34° 265° (W) 18:40:40 437.250
BEESAT 2 19 Oct 18:35:39 18:38:02 15° 357° (N) 18:40:27 435.950
YUBILEINY 19 Oct 18:37:29 18:42:08 15° 38° (NE) 18:46:48 435.215
SEEDS 19 Oct 18:40:05 18:42:54 18° 59° (ENE) 18:45:44 437.485
XW-2F 19 Oct 18:53:07 18:56:54 72° 258° (WSW) 19:00:40 145.980 - 146.000
KAITUO 1B 19 Oct 18:53:24 18:57:09 88° 256° (WSW) 19:00:54 145.475/437.950
LilacSat-2 19 Oct 18:55:48 18:59:35 59° 258° (WSW) 19:03:23 437.200
BEESAT 3 19 Oct 18:56:06 18:58:48 17° 14° (NNE) 19:01:29 437.485
XW-2D 19 Oct 19:04:41 19:08:23 49° 260° (W) 19:12:06 145.860 - 145.880
AAUSAT CUBESAT 2 19 Oct 19:07:53 19:10:26 16° 58° (ENE) 19:13:00 437.432
NUDT-PHONESAT 19 Oct 19:09:41 19:13:22 61° 259° (W) 19:17:04 437.300
CUTE-I 19 Oct 19:15:26 19:20:41 59° 259° (WSW) 19:25:59 437.470
CUBEBUG 2 19 Oct 19:16:59 19:21:18 37° 65° (ENE) 19:25:42 437.445
AO-85 19 Oct 19:17:41 19:20:24 16° 6° (N) 19:23:13 145.980
XW-2B 19 Oct 19:18:19 19:21:52 37° 263° (W) 19:25:25 145.730 - 145.750
AO-73 19 Oct 19:18:28 19:21:06 15° 55° (NE) 19:23:43 145.935
KKS-1 19 Oct 19:20:45 19:25:13 71° 290° (WNW) 19:29:42 437.445
HO-68 19 Oct 19:24:27 19:31:38 81° 69° (ENE) 19:38:52 435.675
XW-2A 19 Oct 19:28:34 19:31:25 25° 66° (ENE) 19:34:17 145.665 - 145.685
CUBESAT XI-V 19 Oct 19:30:52 19:34:29 23° 300° (WNW) 19:38:07 437.345
ZACube-1 19 Oct 19:38:34 19:42:11 23° 60° (ENE) 19:45:47 437.345
XW-2C 19 Oct 19:42:13 19:45:14 22° 267° (W) 19:48:16 145.795 - 145.815
STRAND 1 19 Oct 19:53:24 19:56:44 17° 87° (E) 20:00:04 437.568
STARS 19 Oct 19:56:47 20:01:14 71° 288° (WNW) 20:05:40 437.465
UWE-3 19 Oct 19:57:16 20:01:47 52° 69° (ENE) 20:06:21 435.000/436.395/437.385
PCSat 19 Oct 20:03:48 20:06:39 15° 256° (WSW) 20:09:29 145.827
CUTE 1.7 + AOD 2 19 Oct 20:04:44 20:08:53 55° 259° (W) 20:13:03 437.475
SEEDS 19 Oct 20:14:00 20:18:09 68° 257° (WSW) 20:22:20 437.485
BEESAT 2 19 Oct 20:14:01 20:17:10 21° 21° (NNE) 20:20:17 435.950
Oscar 11 19 Oct 20:17:07 20:20:54 30° 64° (ENE) 20:24:43 .
YUBILEINY 19 Oct 20:33:26 20:41:50 46° 66° (ENE) 20:50:14 435.215
BEESAT 3 19 Oct 20:33:28 20:37:19 41° 37° (NE) 20:41:05 437.485
AAUSAT CUBESAT 2 19 Oct 20:41:18 20:45:24 75° 257° (WSW) 20:49:31 437.432
DELFI C3 19 Oct 20:46:18 20:48:36 15° 58° (ENE) 20:50:55 145.870
AO-73 19 Oct 20:52:05 20:56:39 83° 75° (ENE) 21:01:15 145.935
CUBEBUG 2 19 Oct 20:53:36 20:57:55 35° 265° (W) 21:02:19 437.445
AO-85 19 Oct 20:58:14 21:02:03 29° 29° (NNE) 21:06:05 145.980
KKS-1 19 Oct 20:58:55 21:01:01 13° 308° (NW) 21:03:07 437.445
XW-2A 19 Oct 21:01:02 21:04:04 29° 264° (W) 21:07:07 145.665 - 145.685
CUTE-I 19 Oct 21:01:15 21:01:53 10° 279° (W) 21:02:33 437.470
ZACube-1 19 Oct 21:13:35 21:18:08 59° 260° (W) 21:22:40 437.345
HO-68 19 Oct 21:14:21 21:20:10 26° 270° (W) 21:26:02 435.675
STRAND 1 19 Oct 21:31:25 21:36:37 86° 288° (WNW) 21:41:48 437.568
FO-29 19 Oct 21:33:52 21:39:45 31° 92° (E) 21:46:08 435.910
UWE-3 19 Oct 21:34:38 21:38:30 25° 269° (W) 21:42:23 435.000/436.395/437.385
STARS 19 Oct 21:34:45 21:36:49 13° 308° (NW) 21:38:53 437.465
O/OREOS (USA 219) 19 Oct 21:35:45 21:39:47 32° 107° (ESE) 21:43:53 437.305
EO-88 19 Oct 21:44:56 21:48:05 28° 66° (ENE) 21:51:15 145.990 - 145.960
BEESAT 2 19 Oct 21:51:32 21:55:36 66° 44° (NE) 21:59:37 435.950
Max Valier Satellite 19 Oct 21:51:54 21:55:27 43° 69° (ENE) 21:59:01 145.860
Oscar 11 19 Oct 21:52:55 21:56:58 38° 263° (W) 22:01:03 .
BEESAT 3 19 Oct 22:11:10 22:14:49 35° 238° (WSW) 22:18:25 437.485
ESTCUBE 1 19 Oct 22:11:32 22:13:14 12° 51° (NE) 22:14:56 437.505/2401.250
DELFI C3 19 Oct 22:18:58 22:22:51 74° 256° (WSW) 22:26:48 145.870
UNISAT 6 19 Oct 22:20:42 22:23:41 17° 87° (E) 22:26:38 437.425
YUBILEINY 19 Oct 22:30:26 22:38:54 55° 270° (W) 22:47:22 435.215
AO-73 19 Oct 22:30:48 22:33:29 15° 273° (W) 22:36:11 145.935
TIGRISAT 19 Oct 22:35:26 22:38:57 21° 90° (E) 22:42:24 435.000
LO-87 19 Oct 22:38:25 22:40:57 18° 61° (ENE) 22:43:31 145.935 - 145.965
AO-85 19 Oct 22:38:25 22:42:50 76° 229° (SW) 22:47:36 145.980
SPROUT 19 Oct 23:05:17 23:06:00 10° 50° (NE) 23:06:42 437.525
STRAND 1 19 Oct 23:11:38 23:15:08 19° 307° (NW) 23:18:37 437.568
O/OREOS (USA 219) 19 Oct 23:14:44 23:19:07 43° 308° (NW) 23:23:32 437.305
EO-88 19 Oct 23:18:27 23:21:41 30° 264° (W) 23:24:58 145.990 - 145.960
FO-29 19 Oct 23:18:40 23:25:12 70° 291° (WNW) 23:32:33 435.910
Max Valier Satellite 19 Oct 23:26:38 23:29:28 20° 268° (W) 23:32:19 145.860
BEESAT 2 19 Oct 23:29:53 23:32:58 21° 243° (WSW) 23:36:01 435.950
VELOX 1 19 Oct 23:40:34 23:43:16 16° 55° (NE) 23:45:57 145.980
AIST 2D 19 Oct 23:42:22 23:43:03 10° 87° (E) 23:43:43 435.315
PRISM 19 Oct 23:43:15 23:47:08 39° 98° (E) 23:51:01 437.425
ESTCUBE 1 19 Oct 23:44:46 23:49:12 64° 71° (ENE) 23:53:40 437.505/2401.250
UNISAT 6 19 Oct 23:56:18 00:00:59 77° 287° (WNW) 00:05:33 437.425
LO-87 20 Oct 00:10:33 00:14:04 49° 260° (W) 00:17:37 145.935 - 145.965
TIGRISAT 20 Oct 00:11:26 00:16:03 61° 289° (WNW) 00:20:33 435.000
RS-15 20 Oct 00:14:04 00:22:36 23° 97° (E) 00:31:06 29.354- 29.394
AO-85 20 Oct 00:20:11 00:22:40 14° 247° (WSW) 00:25:12 145.980
YUBILEINY 20 Oct 00:29:49 00:33:35 14° 294° (WNW) 00:37:22 435.215
SPROUT 20 Oct 00:36:47 00:41:00 57° 70° (ENE) 00:45:15 437.525
DX 1 20 Oct 00:49:08 00:52:17 20° 57° (ENE) 00:55:26 434.975-435.025
O/OREOS (USA 219) 20 Oct 00:57:48 00:59:46 12° 331° (NNW) 01:01:46 437.305
EO-79 20 Oct 01:04:11 01:08:03 32° 95° (E) 01:11:54 145.935-145.965
FO-29 20 Oct 01:04:53 01:09:24 20° 310° (NW) 01:14:14 435.910
50 SAT 20 Oct 01:06:40 01:09:19 23° 64° (ENE) 01:11:58 437.505
POLYITAN 1 20 Oct 01:08:37 01:12:35 35° 96° (E) 01:16:29 437.675
AIST 2D 20 Oct 01:13:15 01:16:44 77° 286° (WNW) 01:20:11 435.315
VELOX 1 20 Oct 01:14:44 01:19:08 87° 259° (W) 01:23:33 145.980
UKube-1 20 Oct 01:14:44 01:18:05 23° 59° (ENE) 01:21:27 .
PRISM 20 Oct 01:18:47 01:22:18 28° 297° (WNW) 01:25:49 437.425
ESTCUBE 1 20 Oct 01:23:13 01:26:26 19° 270° (W) 01:29:39 437.505/2401.250
QB50P2 20 Oct 01:28:41 01:32:57 59° 101° (E) 01:37:09 145.880/145.840
NANOSAT C BR1 20 Oct 01:32:50 01:37:02 53° 100° (E) 01:41:11 145.865
UNISAT 6 20 Oct 01:34:24 01:36:55 15° 307° (NW) 01:39:26 437.425
Oscar 19 20 Oct 01:35:18 01:36:10 10° 82° (E) 01:37:02 437.125/150
DUCHIFAT 1 20 Oct 01:44:04 01:48:18 61° 102° (ESE) 01:52:29 145.980
TIGRISAT 20 Oct 01:50:00 01:51:49 12° 310° (NW) 01:53:38 435.000
BUGSAT 1 20 Oct 01:55:30 01:59:02 25° 93° (E) 02:02:32 437.445
Gurwin Techsat 1B 20 Oct 01:58:43 02:01:05 13° 84° (E) 02:03:26 435.225
ITUPSAT 1 20 Oct 02:02:32 02:05:02 14° 51° (NE) 02:07:33 437.325
SPROUT 20 Oct 02:14:05 02:17:15 20° 270° (W) 02:20:26 437.525
BEESAT 20 Oct 02:17:42 02:20:55 18° 54° (NE) 02:24:09 436.000
RS-15 20 Oct 02:20:40 02:32:50 69° 123° (ESE) 02:44:53 29.354- 29.394
DX 1 20 Oct 02:23:45 02:28:03 65° 257° (WSW) 02:32:24 434.975-435.025
50 SAT 20 Oct 02:38:37 02:41:32 30° 263° (W) 02:44:29 437.505
EO-79 20 Oct 02:39:57 02:43:50 35° 295° (WNW) 02:47:42 145.935-145.965
POLYITAN 1 20 Oct 02:44:30 02:48:20 32° 296° (WNW) 02:52:07 437.675
UKube-1 20 Oct 02:49:35 02:53:48 55° 258° (WSW) 02:58:03 .
VELOX 1 20 Oct 02:54:21 02:56:16 13° 274° (W) 02:58:11 145.980
M-CUBED/EXP-1 PRIME 20 Oct 02:56:26 02:59:19 24° 102° (ESE) 03:02:21 437.505
QB50P2 20 Oct 03:05:10 03:08:23 21° 301° (WNW) 03:11:35 145.880/145.840
NANOSAT C BR1 20 Oct 03:09:07 03:12:28 23° 300° (WNW) 03:15:46 145.865
Oscar 19 20 Oct 03:11:27 03:16:34 62° 102° (ESE) 03:21:38 437.125/150
MOZHAYETS 4 20 Oct 03:15:33 03:20:00 48° 68° (ENE) 03:24:28
DUCHIFAT 1 20 Oct 03:20:27 03:23:35 20° 301° (WNW) 03:26:43 145.980
CUBESAT XI-V 20 Oct 03:26:12 03:29:26 19° 57° (ENE) 03:32:40 437.345
BUGSAT 1 20 Oct 03:30:31 03:34:34 44° 293° (WNW) 03:38:35 437.445
Gurwin Techsat 1B 20 Oct 03:36:40 03:42:02 72° 104° (ESE) 03:47:20 435.225
ITUPSAT 1 20 Oct 03:37:16 03:42:03 69° 71° (ENE) 03:46:52 437.325
ITAMSAT 1 20 Oct 03:44:52 03:46:21 11° 83° (E) 03:47:49 435.822/435.867
BEESAT 20 Oct 03:53:18 03:58:06 87° 252° (WSW) 04:02:56 436.000
NO-84 20 Oct 03:58:37 04:01:00 15° 131° (SE) 04:03:23 435.350 FM
AO-7 20 Oct 04:19:02 04:26:22 33° 94° (E) 04:33:39 .
O/OREOS (USA 219) 20 Oct 04:22:50 04:23:24 10° 24° (NNE) 04:23:57 437.305
M-CUBED/EXP-1 PRIME 20 Oct 04:30:41 04:33:51 35° 299° (WNW) 04:37:10 437.505
RS-15 20 Oct 04:33:40 04:45:54 61° 331° (NNW) 04:57:55 29.354- 29.394
KKS-1 20 Oct 04:48:21 04:52:19 33° 63° (ENE) 04:56:19 437.445
Oscar 19 20 Oct 04:51:21 04:55:33 26° 302° (WNW) 04:59:44 437.125/150
MOZHAYETS 4 20 Oct 04:53:28 04:57:23 26° 267° (W) 05:01:18
CUBESAT XI-V 20 Oct 05:01:41 05:06:19 76° 257° (WSW) 05:10:58 437.345
ITUPSAT 1 20 Oct 05:16:53 05:20:22 20° 270° (W) 05:23:52 437.325
Gurwin Techsat 1B 20 Oct 05:17:18 05:21:31 24° 304° (NW) 05:25:44 435.225
ITAMSAT 1 20 Oct 05:21:39 05:26:52 64° 103° (ESE) 05:32:04 435.822/435.867
STARS 20 Oct 05:23:08 05:27:01 32° 63° (ENE) 05:30:57 437.465
NO-84 20 Oct 05:33:35 05:37:46 53° 149° (SSE) 05:41:49 435.350 FM
BEESAT 20 Oct 05:34:03 05:36:36 14° 274° (W) 05:39:10 436.000
STRAND 1 20 Oct 05:40:49 05:41:23 10° 44° (NE) 05:41:57 437.568
O/OREOS (USA 219) 20 Oct 06:00:12 06:04:21 31° 48° (NE) 06:08:27 437.305
AO-7 20 Oct 06:11:34 06:19:51 75° 296° (WNW) 06:28:08 .
DOVE 4 20 Oct 06:24:02 06:28:42 42° 98° (E) 06:33:34 437.250
KKS-1 20 Oct 06:24:43 06:28:49 37° 263° (W) 06:32:59 437.445
LilacSat-2 20 Oct 06:25:30 06:26:00 10° 86° (E) 06:26:30 437.200
XW-2D 20 Oct 06:32:41 06:34:09 12° 87° (E) 06:35:36 145.860 - 145.880
CUBESAT XI-V 20 Oct 06:42:56 06:44:30 11° 276° (W) 06:46:04 437.345
XW-2B 20 Oct 06:45:26 06:47:44 15° 89° (E) 06:50:01 145.730 - 145.750
HO-68 20 Oct 06:49:08 06:50:38 11° 78° (ENE) 06:52:09 435.675
RS-15 20 Oct 06:49:18 07:01:05 47° 3° (N) 07:12:27 29.354- 29.394
STARS 20 Oct 06:59:12 07:03:18 38° 262° (W) 07:07:27 437.465
ITAMSAT 1 20 Oct 07:01:41 07:05:59 26° 303° (WNW) 07:10:16 435.822/435.867
XW-2C 20 Oct 07:08:00 07:11:11 26° 94° (E) 07:14:22 145.795 - 145.815
NO-84 20 Oct 07:10:59 07:15:13 69° 349° (NNW) 07:19:13 435.350 FM
STRAND 1 20 Oct 07:14:30 07:19:20 43° 65° (ENE) 07:24:13 437.568
CUTE-I 20 Oct 07:26:16 07:31:13 36° 96° (E) 07:36:08 437.470
SO-50 20 Oct 07:37:03 07:40:30 22° 116° (ESE) 07:44:00 436.795
O/OREOS (USA 219) 20 Oct 07:39:30 07:43:57 48° 249° (WSW) 07:48:22 437.305
CUTE 1.7 + AOD 2 20 Oct 07:44:12 07:47:02 17° 89° (E) 07:49:53 437.475
KAITUO 1B 20 Oct 07:52:21 07:56:01 56° 102° (ESE) 07:59:38 145.475/437.950
SEEDS 20 Oct 07:52:56 07:55:07 14° 87° (E) 07:57:17 437.485
XW-2F 20 Oct 07:53:07 07:56:52 73° 103° (ESE) 08:00:35 145.980 - 146.000
FO-29 20 Oct 07:54:23 07:58:33 23° 52° (NE) 08:02:59 435.910
LilacSat-2 20 Oct 07:57:06 08:00:54 90° 128° (SE) 08:04:40 437.200
DOVE 4 20 Oct 08:01:56 08:06:19 34° 295° (WNW) 08:10:53 437.250
AO-7 20 Oct 08:05:00 08:11:30 27° 319° (NW) 08:18:00 .
XW-2D 20 Oct 08:05:05 08:08:51 77° 286° (WNW) 08:12:35 145.860 - 145.880
NUDT-PHONESAT 20 Oct 08:07:31 08:11:12 80° 105° (ESE) 08:14:51 437.300
XW-2A 20 Oct 08:17:50 08:19:03 11° 88° (E) 08:20:15 145.665 - 145.685
XW-2B 20 Oct 08:18:34 08:22:16 58° 289° (WNW) 08:25:57 145.730 - 145.750
AAUSAT CUBESAT 2 20 Oct 08:18:59 08:20:35 12° 86° (E) 08:22:09 437.432
HO-68 20 Oct 08:33:12 08:40:13 51° 100° (E) 08:47:11 435.675
AO-73 20 Oct 08:36:22 08:37:40 11° 83° (E) 08:38:57 145.935
CUBEBUG 2 20 Oct 08:38:02 08:42:24 36° 95° (E) 08:46:37 437.445
XW-2C 20 Oct 08:42:02 08:45:26 33° 293° (WNW) 08:48:49 145.795 - 145.815
NO-84 20 Oct 08:48:47 08:52:55 67° 10° (N) 08:56:45 435.350 FM
STRAND 1 20 Oct 08:53:58 08:58:38 35° 265° (W) 09:03:21 437.568
ZACube-1 20 Oct 08:56:37 08:59:50 19° 89° (E) 09:02:58 437.345
RS-15 20 Oct 09:03:46 09:15:57 68° 35° (NE) 09:27:30 29.354- 29.394
CUTE-I 20 Oct 09:06:17 09:11:22 44° 296° (WNW) 09:16:27 437.470
PCSat 20 Oct 09:06:33 09:11:13 31° 113° (ESE) 09:15:56 145.827
PRISM 20 Oct 09:06:42 09:07:15 10° 51° (NE) 09:07:49 437.425
SO-50 20 Oct 09:16:04 09:20:32 72° 316° (NW) 09:25:05 436.795
UWE-3 20 Oct 09:17:11 09:21:40 49° 99° (E) 09:25:58 435.000/436.395/437.385
CUTE 1.7 + AOD 2 20 Oct 09:19:07 09:23:18 62° 288° (WNW) 09:27:26 437.475
UNISAT 6 20 Oct 09:24:27 09:28:31 30° 62° (ENE) 09:32:36 437.425
SEEDS 20 Oct 09:27:10 09:31:21 79° 284° (WNW) 09:35:30 437.485
KAITUO 1B 20 Oct 09:27:12 09:29:38 17° 300° (WNW) 09:32:04 145.475/437.950
XW-2F 20 Oct 09:28:26 09:30:30 14° 302° (WNW) 09:32:34 145.980 - 146.000
LilacSat-2 20 Oct 09:32:59 09:34:35 12° 304° (WNW) 09:36:10 437.200
Oscar 11 20 Oct 09:33:57 09:37:38 26° 93° (E) 09:41:16 .
FO-29 20 Oct 09:37:44 09:43:01 77° 256° (WSW) 09:48:50 435.910
TIGRISAT 20 Oct 09:39:07 09:43:22 36° 65° (ENE) 09:47:41 435.000
XW-2D 20 Oct 09:41:24 09:42:21 11° 305° (NW) 09:43:18 145.860 - 145.880
YUBILEINY 20 Oct 09:42:26 09:50:19 41° 84° (E) 09:58:15 435.215
NUDT-PHONESAT 20 Oct 09:42:47 09:44:32 13° 303° (WNW) 09:46:16 437.300
XW-2A 20 Oct 09:48:49 09:52:11 64° 287° (WNW) 09:55:29 145.665 - 145.685
AAUSAT CUBESAT 2 20 Oct 09:52:31 09:56:39 90° 355° (N) 10:00:47 437.432
AO-7 20 Oct 09:58:21 10:01:32 13° 346° (NNW) 10:04:43 .
AO-73 20 Oct 10:10:15 10:14:42 79° 102° (ESE) 10:19:00 145.935
CUBEBUG 2 20 Oct 10:14:42 10:19:00 36° 295° (WNW) 10:23:11 437.445
HO-68 20 Oct 10:21:09 10:27:56 46° 301° (WNW) 10:34:42 435.675
AIST 2D 20 Oct 10:22:14 10:23:25 11° 57° (ENE) 10:24:36 435.315
NO-84 20 Oct 10:26:25 10:30:18 52° 211° (SSW) 10:33:53 435.350 FM
ZACube-1 20 Oct 10:32:08 10:36:31 60° 289° (WNW) 10:40:47 437.345
POLYITAN 1 20 Oct 10:35:07 10:35:37 10° 50° (NE) 10:36:07 437.675
PRISM 20 Oct 10:37:43 10:41:43 61° 71° (ENE) 10:45:44 437.425
EO-88 20 Oct 10:41:23 10:43:42 16° 90° (E) 10:46:01 145.990 - 145.960
CUTE-I 20 Oct 10:48:48 10:50:11 11° 317° (NW) 10:51:34 437.470
PCSat 20 Oct 10:48:57 10:54:20 63° 314° (NW) 10:59:45 145.827
Max Valier Satellite 20 Oct 10:49:40 10:52:48 25° 94° (E) 10:55:54 145.860
QB50P2 20 Oct 10:53:03 10:55:34 15° 55° (NE) 10:58:05 145.880/145.840
UWE-3 20 Oct 10:54:04 10:57:51 26° 299° (WNW) 11:01:33 435.000/436.395/437.385
nSIGHT-1 20 Oct 10:54:11 10:54:11 10° 138° (SE) 10:54:11 .
NANOSAT C BR1 20 Oct 10:57:02 10:59:16 14° 54° (NE) 11:01:31 145.865
CUTE 1.7 + AOD 2 20 Oct 10:57:21 10:58:18 11° 308° (NW) 10:59:16 437.475
SO-50 20 Oct 10:58:00 11:01:43 24° 339° (NNW) 11:05:29 436.795
UNISAT 6 20 Oct 11:00:34 11:05:03 45° 262° (W) 11:09:37 437.425
SEEDS 20 Oct 11:04:30 11:06:21 13° 306° (NW) 11:08:12 437.485
DUCHIFAT 1 20 Oct 11:07:40 11:10:10 15° 55° (NE) 11:12:41 145.980
Oscar 11 20 Oct 11:09:51 11:13:55 42° 293° (WNW) 11:17:58 .
TIGRISAT 20 Oct 11:15:45 11:20:03 36° 264° (W) 11:24:26 435.000
RS-15 20 Oct 11:16:50 11:28:19 56° 243° (WSW) 11:39:14 29.354- 29.394
ISS 20 Oct 11:23:49 11:25:48 15° 143° (SE) 11:27:48 437.550
DELFI C3 20 Oct 11:24:17 11:28:16 80° 103° (ESE) 11:32:14 145.870
FO-29 20 Oct 11:26:45 11:29:23 14° 279° (W) 11:32:06 435.910
AAUSAT CUBESAT 2 20 Oct 11:29:20 11:31:31 14° 304° (NW) 11:33:41 437.432
YUBILEINY 20 Oct 11:38:16 11:46:50 60° 288° (WNW) 11:55:30 435.215
AO-73 20 Oct 11:47:31 11:50:22 17° 304° (NW) 11:53:12 145.935
AO-7 20 Oct 11:47:44 11:50:52 13° 14° (NNE) 11:53:59 .
AIST 2D 20 Oct 11:52:31 11:56:02 86° 255° (WSW) 11:59:33 435.315
EO-79 20 Oct 12:01:44 12:05:52 51° 69° (ENE) 12:10:03 145.935-145.965
NO-84 20 Oct 12:05:23 12:06:52 12° 232° (SW) 12:08:19 435.350 FM
POLYITAN 1 20 Oct 12:06:18 12:10:30 56° 70° (ENE) 12:14:44 437.675
HO-68 20 Oct 12:10:10 12:14:01 15° 325° (NW) 12:17:53 435.675
ZACube-1 20 Oct 12:10:36 12:11:54 11° 309° (NW) 12:13:10 437.345
EO-88 20 Oct 12:14:07 12:17:40 52° 289° (WNW) 12:21:12 145.990 - 145.960
PRISM 20 Oct 12:14:42 12:17:23 17° 270° (W) 12:20:05 437.425
M-CUBED/EXP-1 PRIME 20 Oct 12:15:55 12:17:00 11° 50° (NE) 12:18:06 437.505
Max Valier Satellite 20 Oct 12:23:20 12:26:40 32° 293° (WNW) 12:29:59 145.860
QB50P2 20 Oct 12:26:28 12:30:46 88° 261° (W) 12:35:06 145.880/145.840
nSIGHT-1 20 Oct 12:26:47 12:29:46 36° 157° (SSE) 12:32:45 .
NANOSAT C BR1 20 Oct 12:30:03 12:34:19 83° 72° (ENE) 12:38:38 145.865
PCSat 20 Oct 12:34:25 12:38:46 24° 338° (NNW) 12:43:08 145.827
SO-50 20 Oct 12:40:23 12:43:37 19° 4° (N) 12:46:52 436.795
DUCHIFAT 1 20 Oct 12:40:59 12:45:15 87° 253° (WSW) 12:49:33 145.980
BUGSAT 1 20 Oct 12:50:17 12:54:11 38° 66° (ENE) 12:58:07 437.445
Oscar 19 20 Oct 12:55:57 13:00:24 30° 60° (ENE) 13:04:51 437.125/150
ISS 20 Oct 12:58:34 13:01:45 48° 162° (SSE) 13:04:55 437.550
DELFI C3 20 Oct 13:00:16 13:02:30 15° 303° (WNW) 13:04:45 145.870
VELOX 1 20 Oct 13:00:24 13:02:10 12° 86° (E) 13:03:56 145.980
LO-87 20 Oct 13:04:32 13:08:13 88° 107° (ESE) 13:11:51 145.935 - 145.965
ESTCUBE 1 20 Oct 13:07:43 13:12:11 61° 102° (ESE) 13:16:37 437.505/2401.250
